Weather History for Lumberton, NC

Change the Weather History Date:

Saturday, January 12, 2013

  Actual Average Record
Temperature  
Mean Temperature 65 °F 43 °F  
Max Temperature 78 °F 53 °F 78 °F (2013)
Min Temperature 52 °F 33 °F 27 °F (2002)
Degree Days  
Heating Degree Days 0 22  
Month to date heating degree days 188 263  
Since 1 July heating degree days 1202 1313  
Cooling Degree Days 0 0  
Month to date cooling degree days 0 0  
Year to date cooling degree days 0 0  
Growing Degree Days 15 (Base 50)    
Moisture  
Dew Point 58 °F    
Average Humidity 80    
Maximum Humidity 100    
Minimum Humidity 60    
Precipitation  
Precipitation 0.00 in 0.09 in 0.55 in (2002)
Month to date precipitation 0.52 1.03  
Year to date precipitation 0.52 1.03  
Sea Level Pressure  
Sea Level Pressure 30.13 in    
Wind  
Wind Speed 3 mph (SW)    
Max Wind Speed 13 mph    
Max Gust Speed 17 mph    
Visibility 4 miles    
Events Fog    
T = Trace of Precipitation, MM = Missing Value Source: NWS Daily Summary

Daily Weather History Graph

Daily Weather History Graph

Search for Another Location

Airport:

Trip Planner

Search our weather history database for the weather conditions in past years. The results will help you decide how hot, cold, wet, or windy it might be!

Date:

Astronomy

Jan. 12, 2013 Rise Set
Actual Time 7:23 AM EST 5:26 PM EST
Civil Twilight 6:55 AM EST 5:53 PM EST
Nautical Twilight 6:24 AM EST 6:24 PM EST
Astronomical Twilight 5:54 AM EST 6:55 PM EST
Moon 7:45 AM EST (1/12) 6:48 PM EST (1/12)
Length of Visible Light 10h 57m
Length of Day
10h 02m
New Moon, 1% of the Moon is Illuminated
Jan 12
New Moon
Jan 18
First Quarter
Jan 26
Full
Feb 3
Last Quarter
Feb 10
New

Hourly Weather History & Observations

Time (EST) Temp. Dew Point Humidity Pressure Visibility Wind Dir Wind Speed Gust Speed Precip Events Conditions
12:54 AM 63.0 °F 61.0 °F 93% 30.15 in 9.0 mi SSW 5.8 mph - N/A   Overcast
1:54 AM 62.1 °F 59.0 °F 90% 30.15 in 10.0 mi SW 4.6 mph - N/A   Clear
2:54 AM 60.1 °F 57.9 °F 93% 30.15 in 9.0 mi Calm Calm - N/A   Clear
3:44 AM 57.2 °F 57.2 °F 100% 30.15 in 1.8 mi Calm Calm - N/A   Clear
3:50 AM 57.2 °F 57.2 °F 100% 30.14 in 1.0 mi Calm Calm - N/A   Clear
3:54 AM 57.0 °F 55.9 °F 96% 30.14 in 0.8 mi Calm Calm - N/A   Clear
4:10 AM 57.2 °F 57.2 °F 100% 30.14 in 1.2 mi Calm Calm - N/A   Clear
4:14 AM 57.2 °F 57.2 °F 100% 30.14 in 0.8 mi Calm Calm - N/A   Clear
4:27 AM 55.4 °F 55.4 °F 100% 30.14 in 1.2 mi Calm Calm - N/A   Clear
4:40 AM 55.4 °F 53.6 °F 94% 30.14 in 1.0 mi Calm Calm - N/A   Clear
4:49 AM 55.4 °F 53.6 °F 94% 30.14 in 1.5 mi Calm Calm - N/A   Clear
4:54 AM 55.0 °F 55.0 °F 100% 30.14 in 0.8 mi Calm Calm - N/A   Clear
5:07 AM 55.4 °F 53.6 °F 94% 30.14 in 0.2 mi Calm Calm - N/A Fog Fog
5:54 AM 53.1 °F 53.1 °F 100% 30.14 in 0.2 mi Calm Calm - N/A Fog Fog
6:54 AM 53.1 °F 52.0 °F 96% 30.15 in 0.2 mi Calm Calm - N/A Fog Fog
7:54 AM 53.1 °F 53.1 °F 100% 30.17 in 0.2 mi Calm Calm - N/A Fog Fog
8:54 AM 60.1 °F 60.1 °F 100% 30.18 in 1.0 mi Calm Calm - N/A   Overcast
8:58 AM 60.8 °F 60.8 °F 100% 30.18 in 1.8 mi Calm Calm - N/A   Overcast
9:03 AM 60.8 °F 60.8 °F 100% 30.18 in 3.0 mi Calm Calm - N/A   Overcast
9:54 AM 64.9 °F 62.1 °F 90% 30.18 in 7.0 mi SW 6.9 mph - N/A   Overcast
10:54 AM 68.0 °F 63.0 °F 84% 30.17 in 8.0 mi WSW 6.9 mph - N/A   Scattered Clouds
11:54 AM 72.0 °F 64.0 °F 76% 30.14 in 8.0 mi SW 8.1 mph - N/A   Mostly Cloudy
12:54 PM 73.9 °F 64.0 °F 71% 30.12 in 10.0 mi WSW 10.4 mph - N/A   Clear
1:54 PM 75.9 °F 64.0 °F 67% 30.11 in 10.0 mi SW 8.1 mph - N/A   Mostly Cloudy
2:54 PM 77.0 °F 62.1 °F 60% 30.11 in 10.0 mi WSW 9.2 mph - N/A   Clear
3:54 PM 77.0 °F 63.0 °F 62% 30.11 in 10.0 mi SW 5.8 mph - N/A   Clear
4:54 PM 73.9 °F 61.0 °F 64% 30.11 in 10.0 mi West 5.8 mph - N/A   Clear
5:54 PM 66.9 °F 61.0 °F 81% 30.11 in 10.0 mi Calm Calm - N/A   Clear
6:54 PM 63.0 °F 61.0 °F 93% 30.11 in 10.0 mi Calm Calm - N/A   Clear
7:54 PM 62.1 °F 60.1 °F 93% 30.11 in 9.0 mi Calm Calm - N/A   Clear
8:54 PM 60.1 °F 57.9 °F 93% 30.11 in 5.0 mi Calm Calm - N/A   Clear
9:54 PM 57.9 °F 57.0 °F 97% 30.10 in 2.5 mi Calm Calm - N/A   Clear
9:56 PM 57.2 °F 57.2 °F 100% 30.10 in 1.0 mi Calm Calm - N/A   Clear
10:03 PM 57.2 °F 57.2 °F 100% 30.11 in 0.5 mi Calm Calm - N/A Fog Fog
10:10 PM 57.2 °F 57.2 °F 100% 30.11 in 1.2 mi Calm Calm - N/A   Clear
10:15 PM 57.2 °F 57.2 °F 100% 30.11 in 2.0 mi Calm Calm - N/A   Clear
10:24 PM 57.2 °F 55.4 °F 94% 30.11 in 1.0 mi Calm Calm - N/A   Clear
10:31 PM 57.2 °F 57.2 °F 100% 30.11 in 0.5 mi Calm Calm - N/A Fog Fog
10:54 PM 57.0 °F 57.0 °F 100% 30.12 in 0.5 mi Calm Calm - N/A Fog Fog
11:17 PM 57.2 °F 55.4 °F 94% 30.12 in 2.0 mi Calm Calm - N/A   Clear
11:26 PM 57.2 °F 55.4 °F 94% 30.12 in 3.0 mi Calm Calm - N/A   Clear
11:33 PM 57.2 °F 55.4 °F 94% 30.12 in 1.8 mi Calm Calm - N/A   Clear
11:45 PM 55.4 °F 55.4 °F 100% 30.12 in 2.5 mi Calm Calm - N/A   Clear
11:54 PM 55.9 °F 55.0 °F 97% 30.12 in 7.0 mi Calm Calm - N/A   Clear